EW5123 Weather Reports


time (UTC)temp
C
wind
direction
speed
KPH
gust
KPH
rain 1hr
cm
rain 24hr
cm
rain mn
cm
humidity
%
barometer
mb
20260903213853 30 212 9.7 24.1 0.00 0.00 0.00 16 981.4
20260903213352 31 214 8.0 24.1 0.00 0.00 0.00 16 981.4
20260903212851 31 223 8.0 17.7 0.00 0.00 0.00 18 981.4
20260903212348 30 149 6.4 17.7 0.00 0.00 0.00 18 981.4
20260903211852 30 207 6.4 16.1 0.00 0.00 0.00 18 981.5
20260903211848 30 210 9.7 20.9 0.00 0.00 0.00 16 981.5
20260903210851 31 192 4.8 19.3 0.00 0.00 0.00 17 981.7
20260903210847 31 196 8.0 20.9 0.00 0.00 0.00 17 981.7
20260903205847 30 224 6.4 19.3 0.00 0.00 0.00 18 981.8
20260903205348 30 188 8.0 19.3 0.00 0.00 0.00 19 981.9
20260903204849 30 214 8.0 17.7 0.00 0.00 0.00 18 982.0
20260903204845 30 216 8.0 19.3 0.00 0.00 0.00 19 981.9
20260903203843 30 207 8.0 22.5 0.00 0.00 0.00 17 982.1
20260903203343 30 205 4.8 22.5 0.00 0.00 0.00 18 982.1
20260903202840 30 105 6.4 20.9 0.00 0.00 0.00 18 982.1
20260903202341 30 257 9.7 20.9 0.00 0.00 0.00 18 982.2
20260903201841 30 164 9.7 20.9 0.00 0.00 0.00 18 982.1
20260903201345 30 217 3.2 12.9 0.00 0.00 0.00 20 982.0
20260903201341 30 235 6.4 20.9 0.00 0.00 0.00 19 982.1
20260903200345 30 321 4.8 16.1 0.00 0.00 0.00 19 982.4
20260903200341 30 153 3.2 14.5 0.00 0.00 0.00 19 982.1
20260903195840 30 303 4.8 14.5 0.00 0.00 0.00 19 982.2
20260903194841 30 253 4.8 16.1 0.00 0.00 0.00 18 982.4
20260903194341 30 198 4.8 14.5 0.00 0.00 0.00 19 982.4
20260903193841 29 207 4.8 16.1 0.00 0.00 0.00 19 982.5
20260903193340 29 242 4.8 22.5 0.00 0.00 0.00 19 982.6
20260903192840 29 274 6.4 22.5 0.00 0.00 0.00 19 982.6
20260903192340 29 283 8.0 20.9 0.00 0.00 0.00 18 982.7
20260903191840 29 200 8.0 22.5 0.00 0.00 0.00 19 982.7
20260903191340 29 210 6.4 22.5 0.00 0.00 0.00 19 982.8
20260903190840 28 131 6.4 16.1 0.00 0.00 0.00 20 982.7
20260903190341 29 185 6.4 17.7 0.00 0.00 0.00 19 983.1
20260903185840 28 232 6.4 17.7 0.00 0.00 0.00 20 983.1
20260903185340 28 173 9.7 20.9 0.00 0.00 0.00 20 983.2
20260903184841 29 206 9.7 20.9 0.00 0.00 0.00 20 983.3
20260903184341 28 119 6.4 16.1 0.00 0.00 0.00 20 983.2
20260903183841 28 195 9.7 20.9 0.00 0.00 0.00 22 983.3
20260903183344 28 204 9.7 22.5 0.00 0.00 0.00 21 983.4
20260903183340 28 191 11.3 22.5 0.00 0.00 0.00 20 983.4
20260903182341 28 202 6.4 19.3 0.00 0.00 0.00 21 983.4
20260903181841 28 196 4.8 14.5 0.00 0.00 0.00 23 983.5
20260903181345 27 165 6.4 17.7 0.00 0.00 0.00 23 983.9
20260903181341 27 171 3.2 14.5 0.00 0.00 0.00 22 983.7
20260903180839 28 304 6.4 17.7 0.00 0.00 0.00 23 983.7
20260903175839 28 192 4.8 16.1 0.00 0.00 0.00 23 984.0
20260903175336 27 277 4.8 16.1 0.00 0.00 0.00 22 984.0
20260903174837 27 186 4.8 16.1 0.00 0.00 0.00 22 984.0
20260903174337 27 275 3.2 16.1 0.00 0.00 0.00 23 984.0
20260903173837 28 202 1.6 11.3 0.00 0.00 0.00 24 984.0
20260903173335 27 148 1.6 11.3 0.00 0.00 0.00 25 984.1
20260903172838 26 239 6.4 16.1 0.00 0.00 0.00 24 984.3
20260903172834 27 140 3.2 12.9 0.00 0.00 0.00 24 984.0
20260903171831 26 257 4.8 16.1 0.00 0.00 0.00 24 984.3
20260903171330 26 216 1.6 12.9 0.00 0.00 0.00 25 984.3
20260903170830 26 231 3.2 12.9 0.00 0.00 0.00 26 984.3
20260903170330 26 305 3.2 9.7 0.00 0.00 0.00 26 984.4
20260903165830 26 321 3.2 19.3 0.00 0.00 0.00 25 984.3
20260903165330 26 244 4.8 19.3 0.00 0.00 0.00 25 984.4
20260903164830 26 253 4.8 14.5 0.00 0.00 0.00 25 984.4
20260903164330 26 210 4.8 22.5 0.00 0.00 0.00 25 984.4
20260903163831 26 217 4.8 22.5 0.00 0.00 0.00 25 984.4
20260903163330 25 190 4.8 14.5 0.00 0.00 0.00 27 984.3
20260903162830 25 217 3.2 16.1 0.00 0.00 0.00 26 984.3
20260903162330 25 291 6.4 16.1 0.00 0.00 0.00 27 984.3
20260903161830 25 236 6.4 16.1 0.00 0.00 0.00 27 984.3
20260903161330 25 213 4.8 16.1 0.00 0.00 0.00 28 984.3
20260903160834 25 225 8.0 14.5 0.00 0.00 0.00 29 984.3
20260903160830 25 221 6.4 16.1 0.00 0.00 0.00 30 984.4
20260903155830 25 190 8.0 17.7 0.00 0.00 0.00 29 984.4
20260903155336 25 202 9.7 19.3 0.00 0.00 0.00 30 984.4
20260903155331 24 174 9.7 19.3 0.00 0.00 0.00 30 984.4
20260903154331 25 162 8.0 16.1 0.00 0.00 0.00 30 984.3
20260903153830 24 221 8.0 16.1 0.00 0.00 0.00 31 984.4
20260903153329 24 212 8.0 16.1 0.00 0.00 0.00 31 984.4
20260903152828 23 219 8.0 16.1 0.00 0.00 0.00 31 984.4
20260903152328 23 229 8.0 17.7 0.00 0.00 0.00 32 984.4
20260903151828 23 161 8.0 17.7 0.00 0.00 0.00 32 984.4
20260903151333 23 220 8.0 16.1 0.00 0.00 0.00 32 984.4
20260903150829 23 214 8.0 16.1 0.00 0.00 0.00 33 984.5
20260903150328 23 202 8.0 17.7 0.00 0.00 0.00 33 984.6
20260903145828 22 205 8.0 17.7 0.00 0.00 0.00 33 984.6
20260903145330 22 231 4.8 16.1 0.00 0.00 0.00 33 984.6
20260903145326 22 246 4.8 16.1 0.00 0.00 0.00 35 984.5
20260903144326 22 188 6.4 17.7 0.00 0.00 0.00 35 984.5
20260903143826 21 198 4.8 17.7 0.00 0.00 0.00 36 984.5
20260903143330 21 199 3.2 9.7 0.00 0.00 0.00 38 984.5
20260903143326 21 212 3.2 11.3 0.00 0.00 0.00 37 984.6
20260903142326 21 221 1.6 9.7 0.00 0.00 0.00 38 984.6
20260903141825 20 175 1.6 9.7 0.00 0.00 0.00 38 984.5
20260903141326 20 173 3.2 9.7 0.00 0.00 0.00 39 984.5
20260903140826 20 157 1.6 6.4 0.00 0.00 0.00 39 984.5
20260903140326 20 202 1.6 6.4 0.00 0.00 0.00 39 984.5
20260903135826 19 195 1.6 8.0 0.00 0.00 0.00 40 984.4
20260903135326 19 200 3.2 8.0 0.00 0.00 0.00 40 984.4
20260903134826 19 198 1.6 6.4 0.00 0.00 0.00 41 984.5
20260903134329 18 195 0.0 4.8 0.00 0.00 0.00 41 984.4
20260903134325 18 195 1.6 4.8 0.00 0.00 0.00 41 984.4
20260903133326 18 226 0.0 4.8 0.00 0.00 0.00 42 984.3
20260903132831 17 203 0.0 3.2 0.00 0.00 0.00 43 984.1
20260903132826 18 214 1.6 4.8 0.00 0.00 0.00 42 984.3
20260903132326 17 217 0.0 3.2 0.00 0.00 0.00 43 984.3
20260903131933 17 246 0.0 1.6 0.00 0.00 0.00 43 984.0
20260903130826 17 206 0.0 1.6 0.00 0.00 0.00 44 984.0
20260903130325 17 198 0.0 1.6 0.00 0.00 0.00 44 984.0
20260903125826 16 186 0.0 0.0 0.00 0.00 0.00 44 984.0
20260903125324 16 204 0.0 1.6 0.00 0.00 0.00 44 983.9
20260903124824 16 222 0.0 1.6 0.00 0.00 0.00 45 983.8
20260903124325 16 266 0.0 1.6 0.00 0.00 0.00 45 983.8
20260903123824 16 212 0.0 1.6 0.00 0.00 0.00 45 983.8
20260903123327 16 223 0.0 0.0 0.00 0.00 0.00 45 983.7
20260903123323 16 223 0.0 0.0 0.00 0.00 0.00 46 983.7
20260903122322 16 229 0.0 0.0 0.00 0.00 0.00 46 983.4
20260903121826 15 225 0.0 0.0 0.00 0.00 0.00 47 983.4
20260903121822 16 223 0.0 0.0 0.00 0.00 0.00 46 983.3
20260903120821 16 234 0.0 1.6 0.00 0.00 0.00 46 983.3
20260903120320 16 234 0.0 1.6 0.00 0.00 0.00 46 983.3
20260903115820 16 219 0.0 4.8 0.00 0.00 0.00 45 983.3
20260903115320 16 219 0.0 4.8 0.00 0.00 0.00 45 983.3
20260903114820 16 255 0.0 1.6 0.00 0.00 0.00 45 983.3
20260903114319 16 158 0.0 1.6 0.00 0.00 0.00 47 983.3
20260903113820 15 205 0.0 3.2 0.00 0.00 0.00 48 983.3
20260903113320 15 203 0.0 3.2 0.00 0.00 0.00 50 983.3
20260903112819 14 229 0.0 1.6 0.00 0.00 0.00 53 983.3
20260903112320 13 205 0.0 1.6 0.00 0.00 0.00 55 983.3
20260903111819 13 210 0.0 0.0 0.00 0.00 0.00 57 983.4
20260903111319 12 210 0.0 0.0 0.00 0.00 0.00 62 983.3
20260903110819 11 160 0.0 0.0 0.00 0.00 0.00 67 983.3
20260903110324 11 160 0.0 0.0 0.00 0.00 0.00 67 983.3
20260903110320 11 160 0.0 0.0 0.00 0.00 0.00 67 983.3
20260903105319 11 160 0.0 0.0 0.00 0.00 0.00 66 983.4
20260903104820 12 158 0.0 0.0 0.00 0.00 0.00 65 983.3
20260903104317 12 158 0.0 0.0 0.00 0.00 0.00 64 983.3
20260903103817 12 158 0.0 0.0 0.00 0.00 0.00 65 983.3
20260903103318 11 158 0.0 0.0 0.00 0.00 0.00 68 983.3
20260903102821 11 160 0.0 0.0 0.00 0.00 0.00 70 983.3
20260903102817 12 158 0.0 0.0 0.00 0.00 0.00 69 983.2
20260903101817 11 141 0.0 0.0 0.00 0.00 0.00 71 983.3
20260903101318 11 165 0.0 0.0 0.00 0.00 0.00 72 983.2
20260903100818 11 356 0.0 1.6 0.00 0.00 0.00 71 983.2
20260903100315 11 356 0.0 1.6 0.00 0.00 0.00 72 983.1
20260903095815 11 228 0.0 0.0 0.00 0.00 0.00 73 983.1
20260903095316 11 193 0.0 0.0 0.00 0.00 0.00 73 983.2
20260903094815 12 252 0.0 0.0 0.00 0.00 0.00 73 983.2
20260903094315 12 212 0.0 0.0 0.00 0.00 0.00 73 983.2
20260903093813 12 212 0.0 0.0 0.00 0.00 0.00 72 983.2
20260903093314 12 212 0.0 0.0 0.00 0.00 0.00 71 983.3
20260903092813 12 212 0.0 0.0 0.00 0.00 0.00 70 983.2
20260903092313 12 212 0.0 0.0 0.00 0.00 0.00 69 983.2
20260903091814 13 157 0.0 0.0 0.00 0.00 0.00 70 983.2
20260903091313 13 157 0.0 3.2 0.00 0.00 0.00 70 983.2
20260903090815 12 158 0.0 3.2 0.00 0.00 0.00 73 983.2
20260903090313 12 161 0.0 1.6 0.00 0.00 0.00 74 983.2
20260903085813 12 338 0.0 3.2 0.00 0.00 0.00 74 983.3
20260903085314 12 15 0.0 3.2 0.00 0.00 0.00 76 983.4
20260903084814 12 160 0.0 1.6 0.00 0.00 0.00 74 983.2
20260903084313 12 212 0.0 0.0 0.00 0.00 0.00 74 983.2
20260903083814 11 96 0.0 0.0 0.00 0.00 0.00 76 983.2
20260903083313 11 170 0.0 0.0 0.00 0.00 0.00 77 983.2
20260903082813 11 170 0.0 0.0 0.00 0.00 0.00 76 983.2
20260903082311 11 170 0.0 0.0 0.00 0.00 0.00 76 983.1
20260903081811 12 170 0.0 0.0 0.00 0.00 0.00 75 983.1
20260903081311 12 170 0.0 0.0 0.00 0.00 0.00 75 983.2
20260903080809 12 170 0.0 0.0 0.00 0.00 0.00 76 983.3
20260903080309 12 157 0.0 1.6 0.00 0.00 0.00 76 983.3
20260903075809 12 131 0.0 1.6 0.00 0.00 0.00 76 983.4
20260903075309 12 217 0.0 0.0 0.00 0.00 0.00 76 983.4
20260903074809 12 220 0.0 0.0 0.00 0.00 0.00 76 983.5
20260903074309 12 108 0.0 0.0 0.00 0.00 0.00 75 983.4
20260903073811 12 204 0.0 0.0 0.00 0.00 0.00 75 983.4
20260903073309 12 213 0.0 0.0 0.00 0.00 0.00 74 983.5
20260903072809 12 213 0.0 0.0 0.00 0.00 0.00 74 983.5
20260903072313 13 213 0.0 0.0 0.00 0.00 0.00 72 983.5
20260903072309 13 213 0.0 0.0 0.00 0.00 0.00 73 983.5
20260903071312 13 213 0.0 0.0 0.00 0.00 0.00 70 983.8
20260903071308 13 213 0.0 0.0 0.00 0.00 0.00 71 983.7
20260903070307 14 213 0.0 0.0 0.00 0.00 0.00 69 983.8
20260903065807 14 213 0.0 0.0 0.00 0.00 0.00 67 983.8
20260903065307 14 213 0.0 0.0 0.00 0.00 0.00 66 983.8
20260903064811 14 212 0.0 0.0 0.00 0.00 0.00 68 983.7
20260903064807 14 213 0.0 0.0 0.00 0.00 0.00 68 983.8
20260903063806 14 165 0.0 0.0 0.00 0.00 0.00 68 983.8
20260903063306 14 164 0.0 0.0 0.00 0.00 0.00 68 983.8
20260903062806 14 160 0.0 0.0 0.00 0.00 0.00 68 983.8
20260903062306 15 182 0.0 0.0 0.00 0.00 0.00 66 983.8
20260903061805 15 184 0.0 0.0 0.00 0.00 0.00 64 983.7
20260903061307 16 184 0.0 0.0 0.00 0.00 0.00 62 983.8
20260903060805 16 184 0.0 0.0 0.00 0.00 0.00 60 983.9
20260903060305 16 184 0.0 1.6 0.00 0.00 0.00 59 984.0
20260903055809 16 198 0.0 3.2 0.00 0.00 0.00 60 983.8
20260903055805 16 208 0.0 1.6 0.00 0.00 0.00 59 983.9
20260903054804 16 224 0.0 3.2 0.00 0.00 0.00 60 983.8
20260903054302 16 245 0.0 1.6 0.00 0.00 0.00 61 983.9
20260903053802 16 212 0.0 1.6 0.00 0.00 0.00 62 983.9
20260903053306 16 222 0.0 0.0 0.00 0.00 0.00 61 983.9
20260903053302 15 214 0.0 0.0 0.00 0.00 0.00 63 984.0
20260903052307 16 222 0.0 0.0 0.00 0.00 0.00 59 983.9
20260903051302 17 222 0.0 1.6 0.00 0.00 0.00 58 984.0
20260903050802 17 187 0.0 3.2 0.00 0.00 0.00 57 984.0
20260903050305 17 290 0.0 3.2 0.00 0.00 0.00 57 984.1
20260903050301 17 198 0.0 3.2 0.00 0.00 0.00 57 984.1
20260903045300 16 137 0.0 0.0 0.00 0.00 0.00 59 984.1
20260903044800 17 127 0.0 0.0 0.00 0.00 0.00 57 984.0
20260903044300 17 8 0.0 0.0 0.00 0.00 0.00 55 984.1
20260903043805 18 8 0.0 0.0 0.00 0.00 0.00 53 984.1
20260903043800 17 9 0.0 0.0 0.00 0.00 0.00 55 984.1
20260903042758 18 2 0.0 0.0 0.00 0.00 0.00 52 984.1
20260903042259 18 348 0.0 0.0 0.00 0.00 0.00 51 984.1
20260903041757 18 348 0.0 0.0 0.00 0.00 0.00 51 984.1
20260903041300 19 353 0.0 1.6 0.00 0.00 0.00 51 984.1
20260903041256 18 348 0.0 0.0 0.00 0.00 0.00 51 984.0
20260903040859 19 353 0.0 1.6 0.00 0.00 0.00 51 984.1
20260903035758 19 223 0.0 0.0 0.00 0.00 0.00 49 984.0
20260903035754 19 340 0.0 1.6 0.00 0.00 0.00 50 984.1
20260903034758 20 217 0.0 0.0 0.00 0.00 0.00 48 983.9
20260903034754 20 223 0.0 0.0 0.00 0.00 0.00 48 983.9
20260903033754 20 237 0.0 3.2 0.00 0.00 0.00 46 983.9
20260903033254 20 297 0.0 6.4 0.00 0.00 0.00 45 983.9
20260903032754 21 292 1.6 11.3 0.00 0.00 0.00 44 983.7
20260903032253 21 291 1.6 11.3 0.00 0.00 0.00 42 983.5
20260903031754 21 356 0.0 4.8 0.00 0.00 0.00 42 983.5
20260903031254 21 294 0.0 8.0 0.00 0.00 0.00 41 983.5
20260903030754 21 331 1.6 8.0 0.00 0.00 0.00 41 983.5
20260903030253 22 5 3.2 11.3 0.00 0.00 0.00 41 983.4
20260903025754 22 14 4.8 12.9 0.00 0.00 0.00 40 983.4
20260903025258 22 332 6.4 16.1 0.00 0.00 0.00 39 983.2
20260903025254 22 329 6.4 16.1 0.00 0.00 0.00 39 983.4
20260903024254 22 11 8.0 19.3 0.00 0.00 0.00 38 983.2
20260903023754 22 323 9.7 19.3 0.00 0.00 0.00 37 983.1
20260903023257 23 345 3.2 17.7 0.00 0.00 0.00 38 982.8
20260903023253 22 333 6.4 19.3 0.00 0.00 0.00 37 983.1
20260903022254 23 355 1.6 9.7 0.00 0.00 0.00 40 982.6
20260903021758 23 208 0.0 6.4 0.00 0.00 0.00 38 982.2
20260903021754 23 323 0.0 8.0 0.00 0.00 0.00 40 982.4
20260903020757 23 303 0.0 3.2 0.00 0.00 0.00 34 981.9
20260903020753 23 301 0.0 6.4 0.00 0.00 0.00 37 982.0
20260903015754 23 342 0.0 3.2 0.00 0.00 0.00 35 981.8
20260903015257 23 205 0.0 0.0 0.00 0.00 0.00 38 981.7
20260903015253 23 301 0.0 1.6 0.00 0.00 0.00 37 981.8
20260903014251 24 203 0.0 3.2 0.00 0.00 0.00 37 981.7
20260903013753 24 204 0.0 11.3 0.00 0.00 0.00 38 981.8
20260903013252 25 110 4.8 14.5 0.00 0.00 0.00 33 982.1
20260903012755 25 193 1.6 9.7 0.00 0.00 0.00 34 981.8
20260903012751 25 110 4.8 14.5 0.00 0.00 0.00 35 981.9
20260903012246 25 194 1.6 8.0 0.00 0.00 0.00 33 981.4
20260903011851 25 206 0.0 6.4 0.00 0.00 0.00 34 981.4
20260903010745 25 217 1.6 8.0 0.00 0.00 0.00 33 981.3
20260903010250 26 212 0.0 3.2 0.00 0.00 0.00 29 981.3
20260903010246 25 255 1.6 8.0 0.00 0.00 0.00 31 981.3
20260903005851 26 212 0.0 3.2 0.00 0.00 0.00 28 981.4
20260903004743 26 219 0.0 1.6 0.00 0.00 0.00 28 981.3
20260903004244 26 238 0.0 3.2 0.00 0.00 0.00 27 981.3
20260903003748 26 233 1.6 8.0 0.00 0.00 0.00 25 981.3
20260903003743 26 293 0.0 6.4 0.00 0.00 0.00 26 981.3
20260903002741 26 203 3.2 8.0 0.00 0.00 0.00 25 981.2
20260903002241 27 193 4.8 12.9 0.00 0.00 0.00 25 981.1
20260903001241 27 191 6.4 12.9 0.00 0.00 0.00 24 981.1
20260903000741 28 203 8.0 12.9 0.00 0.00 0.00 23 980.9
20260903000241 28 167 6.4 16.1 0.00 0.00 0.00 23 980.9
20260902235739 29 156 8.0 20.9 0.00 0.00 0.00 23 980.8
20260902235241 30 184 9.7 20.9 0.00 0.00 0.00 22 980.9
20260902234739 30 175 6.4 19.3 0.00 0.00 0.00 22 980.9
20260902234239 31 215 1.6 19.3 0.00 0.00 0.00 21 980.8
20260902233739 31 171 1.6 8.0 0.00 0.00 0.00 21 980.9
20260902233243 31 212 1.6 6.4 0.00 0.00 0.00 19 980.9
20260902233239 31 179 1.6 8.0 0.00 0.00 0.00 20 980.9
20260902232239 31 165 3.2 9.7 0.00 0.00 0.00 20 981.1
20260902231739 31 131 3.2 14.5 0.00 0.00 0.00 21 981.1
20260902231238 31 145 3.2 14.5 0.00 0.00 0.00 21 981.2
20260902230737 31 182 0.0 8.0 0.00 0.00 0.00 19 981.1
20260902230238 31 143 0.0 11.3 0.00 0.00 0.00 21 981.1
20260902225737 31 94 0.0 11.3 0.00 0.00 0.00 20 981.2
20260902225241 28 139 3.2 14.5 0.00 0.00 0.00 24 981.3
20260902225237 30 149 0.0 4.8 0.00 0.00 0.00 22 981.3
20260902224237 28 356 3.2 14.5 0.00 0.00 0.00 24 981.3
20260902223737 29 321 1.6 14.5 0.00 0.00 0.00 26 981.4
20260902223237 28 168 0.0 11.3 0.00 0.00 0.00 26 981.5
20260902222737 28 353 1.6 4.8 0.00 0.00 0.00 26 981.4
20260902222239 28 299 1.6 6.4 0.00 0.00 0.00 26 981.7
20260902222235 29 263 1.6 8.0 0.00 0.00 0.00 26 981.7
20260902221840 30 294 1.6 8.0 0.00 0.00 0.00 25 981.9
20260902220735 30 311 0.0 4.8 0.00 0.00 0.00 25 982.0
20260902220235 30 90 1.6 9.7 0.00 0.00 0.00 26 982.0
20260902215735 29 317 1.6 9.7 0.00 0.00 0.00 28 982.0
20260902215235 28 357 1.6 6.4 0.00 0.00 0.00 29 982.1
20260902214735 28 297 1.6 9.7 0.00 0.00 0.00 29 982.2